Simultaneous Nadir Overpasses (SNOs) Predictions

Prediction of SNOs between METOP-A and NOAA-19 Satellite Orbit:

Table of predicted SNOs for the next 14.0 days since TLE Epoch: 2/28/2015
Index Date (METOP-A) Time (METOP-A) Lat,Lon (METOP-A) SZA (METOP-A ) Date (NOAA-19) Time (NOAA-19) Lat,Lon (NOAA-19) SZA (NOAA-19 ) Distance(km) Time Diff (sec)
1 03/03/2015 23:36:01 -75.03, 3.27 98.34 03/03/2015 23:34:50 -75.00, 1.63 98.30 47.28 71
2 03/04/2015 00:26:47 74.73, 169.78 81.38 03/04/2015 00:25:49 74.72, 169.67 81.39 3.28 58
3 03/04/2015 01:17:30 -74.67, -23.06 98.69 03/04/2015 01:16:46 -74.68, -22.94 98.68 3.59 44
4 03/04/2015 02:08:10 74.66, 144.25 81.29 03/04/2015 02:07:51 74.68, 144.28 81.31 2.00 19
5 03/04/2015 02:58:52 -74.65, -48.45 98.74 03/04/2015 02:58:49 -74.68, -48.46 98.71 3.33 3
6 03/04/2015 03:49:32 74.64, 118.86 81.25 03/04/2015 03:49:53 74.64, 118.90 81.24 1.27 21
7 03/04/2015 04:40:14 -74.63, -73.84 98.78 03/04/2015 04:40:51 -74.64, -73.85 98.78 0.66 37
8 03/04/2015 05:30:54 74.62, 93.47 81.20 03/04/2015 05:31:56 74.64, 93.37 81.22 3.44 62
9 03/04/2015 06:21:38 -74.52, -99.49 98.91 03/04/2015 06:22:52 -74.55, -99.11 98.91 12.04 74
10 03/14/2015 09:37:06 -75.28,-146.30 102.18 03/14/2015 09:35:59 -75.27,-149.31 102.09 85.00 67
11 03/14/2015 10:27:57 74.73, 19.46 77.30 03/14/2015 10:26:50 74.76, 19.47 77.34 3.52 67
12 03/14/2015 11:18:39 -74.73,-173.20 102.72 03/14/2015 11:17:50 -74.72,-173.17 102.72 1.67 49
13 03/14/2015 12:09:19 74.71, -5.93 77.25 03/14/2015 12:08:52 74.72, -5.92 77.27 1.20 27
14 03/14/2015 13:00:01 -74.71, 161.41 102.76 03/14/2015 12:59:53 -74.73, 161.31 102.75 3.19 8
15 03/14/2015 13:50:41 74.69, -31.33 77.21 03/14/2015 13:50:54 74.68, -31.31 77.19 1.36 13
16 03/14/2015 14:41:23 -74.69, 136.01 102.81 03/14/2015 14:41:55 -74.68, 135.92 102.82 2.99 32




NCC Satellite Simultaneous Nadir Overpasses (SNOs) Prediction Service
